Time,TemperatureF,DewpointF,PressureIn,WindDirection,WindDirectionDegrees,WindSpeedMPH,WindSpeedGustMPH,Humidity,HourlyPrecipIn,Conditions,Clouds,dailyrainin,SoftwareType,DateUTC
2013-01-27 00:00:00,39.0,31.7,30.33,NE,39,2.0,6.0,75,0.00,CLR,,0.00,WeatherDisplay:10.37,2013-01-27 05:00:00,
2013-01-27 00:10:00,38.9,32.0,30.33,NNE,32,2.0,7.0,76,0.00,CLR,,0.00,WeatherDisplay:10.37,2013-01-27 05:10:00,
2013-01-27 00:20:00,39.0,32.1,30.34,NNE,30,1.0,7.0,76,0.00,CLR,,0.00,WeatherDisplay:10.37,2013-01-27 05:20:00,
2013-01-27 00:30:00,38.8,31.9,30.34,NE,47,0.0,6.0,76,0.00,CLR,,0.00,WeatherDisplay:10.37,2013-01-27 05:30:00,
2013-01-27 00:40:00,38.3,32.0,30.35,NE,40,0.0,2.0,78,0.00,CLR,,0.00,WeatherDisplay:10.37,2013-01-27 05:40:00,
2013-01-27 00:50:00,37.9,32.0,30.34,NE,44,3.0,6.0,79,0.00,CLR,,0.00,WeatherDisplay:10.37,2013-01-27 05:50:00,
2013-01-27 01:00:00,37.6,32.0,30.35,NE,35,0.0,5.0,80,0.00,CLR,,0.00,WeatherDisplay:10.37,2013-01-27 06:00:00,
2013-01-27 01:10:00,37.5,31.9,30.35,NNE,21,1.0,5.0,80,0.00,CLR,,0.00,WeatherDisplay:10.37,2013-01-27 06:10:00,
2013-01-27 01:20:00,37.2,31.6,30.36,North,3,0.0,6.0,80,0.00,CLR,,0.00,WeatherDisplay:10.37,2013-01-27 06:20:00,
2013-01-27 01:30:00,36.2,30.9,30.35,NW,305,0.0,2.0,81,0.00,CLR,,0.00,WeatherDisplay:10.37,2013-01-27 06:30:00,
2013-01-27 01:40:00,35.4,30.7,30.35,NW,305,0.0,1.0,83,0.00,CLR,,0.00,WeatherDisplay:10.37,2013-01-27 06:40:00,
2013-01-27 01:50:00,34.6,30.6,30.36,NW,311,0.0,4.0,85,0.00,CLR,,0.00,WeatherDisplay:10.37,2013-01-27 06:50:00,
2013-01-27 02:00:00,34.5,30.5,30.36,ENE,64,0.0,4.0,85,0.00,CLR,,0.00,WeatherDisplay:10.37,2013-01-27 07:00:00,
2013-01-27 02:20:00,34.4,30.9,30.36,NE,49,0.0,6.0,87,0.00,CLR,,0.00,WeatherDisplay:10.37,2013-01-27 07:20:00,
2013-01-27 02:30:00,34.1,30.6,30.36,ENE,78,1.0,4.0,87,0.00,CLR,,0.00,WeatherDisplay:10.37,2013-01-27 07:30:00,
2013-01-27 02:40:00,34.2,30.7,30.36,NE,36,0.0,4.0,87,0.00,CLR,,0.00,WeatherDisplay:10.37,2013-01-27 07:40:00,
2013-01-27 02:50:00,33.9,30.4,30.37,SE,146,0.0,2.0,87,0.00,CLR,,0.00,WeatherDisplay:10.37,2013-01-27 07:50:00,
2013-01-27 03:00:00,33.6,30.4,30.37,SE,131,1.0,4.0,88,0.00,CLR,,0.00,WeatherDisplay:10.37,2013-01-27 08:00:00,
2013-01-27 03:10:00,33.8,30.9,30.37,ENE,63,0.0,4.0,89,0.00,BKN,,0.00,WeatherDisplay:10.37,2013-01-27 08:10:00,
2013-01-27 03:20:00,34.3,31.3,30.37,NE,38,2.0,5.0,89,0.00,BKN,,0.00,WeatherDisplay:10.37,2013-01-27 08:20:00,
2013-01-27 03:30:00,34.6,31.1,30.37,NE,41,2.0,7.0,87,0.00,BKN,,0.00,WeatherDisplay:10.37,2013-01-27 08:30:00,
2013-01-27 03:40:00,34.5,31.0,30.37,NE,35,2.0,6.0,87,0.00,OVC,,0.00,WeatherDisplay:10.37,2013-01-27 08:40:00,
2013-01-27 03:50:00,34.2,30.7,30.37,NE,41,1.0,7.0,87,0.00,OVC,,0.00,WeatherDisplay:10.37,2013-01-27 08:50:00,
2013-01-27 04:00:00,33.9,30.7,30.37,NE,37,0.0,2.0,88,0.00,OVC,,0.00,WeatherDisplay:10.37,2013-01-27 09:00:00,
2013-01-27 04:10:00,33.4,30.2,30.37,NE,37,0.0,2.0,88,0.00,SCT,,0.00,WeatherDisplay:10.37,2013-01-27 09:10:00,
2013-01-27 04:20:00,33.3,30.4,30.37,NE,47,0.0,3.0,89,0.00,SCT,,0.00,WeatherDisplay:10.37,2013-01-27 09:20:00,
2013-01-27 04:30:00,33.2,30.3,30.38,NNE,29,0.0,2.0,89,0.00,SCT,,0.00,WeatherDisplay:10.37,2013-01-27 09:30:00,
2013-01-27 04:40:00,33.1,30.2,30.38,North,352,0.0,3.0,89,0.00,SCT,,0.00,WeatherDisplay:10.37,2013-01-27 09:40:00,
2013-01-27 04:50:00,33.0,30.1,30.38,NNW,348,0.0,5.0,89,0.00,BKN,,0.00,WeatherDisplay:10.37,2013-01-27 09:50:00,
2013-01-27 05:00:00,33.1,30.2,30.38,NNE,25,0.0,5.0,89,0.00,BKN,,0.00,WeatherDisplay:10.37,2013-01-27 10:00:00,
2013-01-27 05:10:00,33.1,30.2,30.38,NNE,27,1.0,4.0,89,0.00,BKN,,0.00,WeatherDisplay:10.37,2013-01-27 10:10:00,
2013-01-27 05:20:00,33.2,30.0,30.38,NE,37,2.0,5.0,88,0.00,BKN,,0.00,WeatherDisplay:10.37,2013-01-27 10:20:00,
2013-01-27 05:30:00,33.2,30.0,30.38,ENE,73,0.0,4.0,88,0.00,BKN,,0.00,WeatherDisplay:10.37,2013-01-27 10:30:00,
2013-01-27 05:40:00,33.1,29.9,30.39,NE,43,1.0,6.0,88,0.00,BKN,,0.00,WeatherDisplay:10.37,2013-01-27 10:40:00,
2013-01-27 05:50:00,33.1,29.9,30.40,NE,44,0.0,3.0,88,0.00,OVC,,0.00,WeatherDisplay:10.37,2013-01-27 10:50:00,
2013-01-27 06:00:00,33.2,30.0,30.40,NE,44,0.0,1.0,88,0.00,OVC,,0.00,WeatherDisplay:10.37,2013-01-27 11:00:00,
2013-01-27 06:10:00,33.2,30.0,30.40,NE,44,0.0,0.0,88,0.00,OVC,,0.00,WeatherDisplay:10.37,2013-01-27 11:10:00,
2013-01-27 06:20:00,33.1,29.9,30.40,NE,44,0.0,0.0,88,0.00,OVC,,0.00,WeatherDisplay:10.37,2013-01-27 11:20:00,
2013-01-27 06:30:00,33.1,29.9,30.40,NE,44,0.0,2.0,88,0.00,OVC,,0.00,WeatherDisplay:10.37,2013-01-27 11:30:00,
2013-01-27 06:40:00,33.0,29.8,30.40,NE,44,0.0,1.0,88,0.00,OVC,,0.00,WeatherDisplay:10.37,2013-01-27 11:40:00,
2013-01-27 06:50:00,32.9,29.7,30.41,NE,44,0.0,1.0,88,0.00,OVC,,0.00,WeatherDisplay:10.37,2013-01-27 11:50:00,
2013-01-27 07:00:00,32.8,29.9,30.42,NE,44,0.0,3.0,89,0.00,OVC,,0.00,WeatherDisplay:10.37,2013-01-27 12:00:00,
2013-01-27 07:10:00,32.7,29.8,30.41,NE,44,0.0,0.0,89,0.00,OVC,,0.00,WeatherDisplay:10.37,2013-01-27 12:10:00,
2013-01-27 07:20:00,32.4,29.5,30.41,NE,44,0.0,1.0,89,0.00,OVC,,0.00,WeatherDisplay:10.37,2013-01-27 12:20:00,
2013-01-27 07:30:00,32.0,29.4,30.42,NE,44,0.0,1.0,90,0.00,OVC,,0.00,WeatherDisplay:10.37,2013-01-27 12:30:00,
2013-01-27 07:40:00,31.8,29.2,30.42,NE,44,0.0,1.0,90,0.00,OVC,,0.00,WeatherDisplay:10.37,2013-01-27 12:40:00,
2013-01-27 07:50:00,31.6,29.3,30.43,NE,44,0.0,2.0,91,0.00,BKN,,0.00,WeatherDisplay:10.37,2013-01-27 12:50:00,
2013-01-27 08:00:00,31.4,29.1,30.43,NE,44,0.0,2.0,91,0.00,BKN,,0.00,WeatherDisplay:10.37,2013-01-27 13:00:00,
2013-01-27 08:10:00,31.5,29.4,30.44,NE,44,0.0,2.0,92,0.00,OVC,,0.00,WeatherDisplay:10.37,2013-01-27 13:10:00,
2013-01-27 08:20:00,31.7,29.7,30.44,NE,44,1.0,2.0,92,0.00,OVC,,0.00,WeatherDisplay:10.37,2013-01-27 13:20:00,
2013-01-27 08:30:00,32.2,30.1,30.44,NE,44,2.0,3.0,92,0.00,OVC,,0.00,WeatherDisplay:10.37,2013-01-27 13:30:00,
2013-01-27 08:40:00,32.6,30.3,30.44,NE,44,2.0,3.0,91,0.00,OVC,,0.00,WeatherDisplay:10.37,2013-01-27 13:40:00,
2013-01-27 08:50:00,33.1,30.5,30.44,SSE,153,0.0,2.0,90,0.00,OVC,,0.00,WeatherDisplay:10.37,2013-01-27 13:50:00,
2013-01-27 09:00:00,33.9,31.3,30.45,South,176,1.0,2.0,90,0.00,OVC,,0.00,WeatherDisplay:10.37,2013-01-27 14:00:00,
2013-01-27 09:10:00,34.4,30.9,30.45,South,181,1.0,5.0,87,0.00,BKN,,0.00,WeatherDisplay:10.37,2013-01-27 14:10:00,
2013-01-27 09:20:00,34.8,31.3,30.45,SSE,161,1.0,3.0,87,0.00,BKN,,0.00,WeatherDisplay:10.37,2013-01-27 14:20:00,
2013-01-27 09:30:00,35.7,31.9,30.44,SSE,161,1.0,4.0,86,0.00,BKN,,0.00,WeatherDisplay:10.37,2013-01-27 14:30:00,
2013-01-27 09:40:00,36.9,32.2,30.45,SSE,161,0.0,2.0,83,0.00,BKN,,0.00,WeatherDisplay:10.37,2013-01-27 14:40:00,
2013-01-27 09:50:00,37.7,32.7,30.46,SSE,161,0.0,2.0,82,0.00,SCT,,0.00,WeatherDisplay:10.37,2013-01-27 14:50:00,
2013-01-27 10:00:00,38.3,33.0,30.46,SSE,161,1.0,2.0,81,0.00,SCT,,0.00,WeatherDisplay:10.37,2013-01-27 15:00:00,
2013-01-27 10:10:00,39.1,33.4,30.46,SSE,161,0.0,4.0,80,0.00,SCT,,0.00,WeatherDisplay:10.37,2013-01-27 15:10:00,
2013-01-27 10:20:00,40.0,34.0,30.46,SSE,161,0.0,4.0,79,0.00,SCT,,0.00,WeatherDisplay:10.37,2013-01-27 15:20:00,
2013-01-27 10:30:00,40.9,34.3,30.45,SW,233,1.0,5.0,77,0.00,SCT,,0.00,WeatherDisplay:10.37,2013-01-27 15:30:00,
2013-01-27 10:40:00,42.4,34.7,30.45,SSE,147,3.0,8.0,74,0.00,OVC,,0.00,WeatherDisplay:10.37,2013-01-27 15:40:00,
2013-01-27 10:50:00,44.0,34.8,30.44,South,180,5.0,13.0,70,0.00,OVC,,0.00,WeatherDisplay:10.37,2013-01-27 15:50:00,
2013-01-27 11:00:00,45.0,35.0,30.44,SSE,155,6.0,18.0,68,0.00,OVC,,0.00,WeatherDisplay:10.37,2013-01-27 16:00:00,
2013-01-27 11:10:00,46.3,35.5,30.44,SSE,164,5.0,12.0,66,0.00,SCT,,0.00,WeatherDisplay:10.37,2013-01-27 16:10:00,
2013-01-27 11:20:00,47.3,35.3,30.43,South,186,10.0,15.0,63,0.00,SCT,,0.00,WeatherDisplay:10.37,2013-01-27 16:20:00,
2013-01-27 11:30:00,47.5,35.5,30.44,South,176,5.0,13.0,63,0.00,SCT,,0.00,WeatherDisplay:10.37,2013-01-27 16:30:00,
2013-01-27 11:40:00,47.9,35.5,30.44,South,191,5.0,10.0,62,0.00,SCT,,0.00,WeatherDisplay:10.37,2013-01-27 16:40:00,
2013-01-27 11:50:00,48.1,35.3,30.44,SSW,192,8.0,12.0,61,0.00,BKN,,0.00,WeatherDisplay:10.37,2013-01-27 16:50:00,
2013-01-27 12:00:00,48.6,34.9,30.43,SSW,199,7.0,15.0,59,0.00,BKN,,0.00,WeatherDisplay:10.37,2013-01-27 17:00:00,
2013-01-27 12:10:00,48.8,35.1,30.42,SSW,196,8.0,15.0,59,0.00,BKN,,0.00,WeatherDisplay:10.37,2013-01-27 17:10:00,
2013-01-27 12:20:00,49.0,35.3,30.42,South,175,8.0,13.0,59,0.00,BKN,,0.00,WeatherDisplay:10.37,2013-01-27 17:20:00,
2013-01-27 12:30:00,49.6,35.4,30.41,South,169,7.0,20.0,58,0.00,BKN,,0.00,WeatherDisplay:10.37,2013-01-27 17:30:00,
2013-01-27 12:40:00,49.9,35.3,30.41,SSE,167,7.0,17.0,57,0.00,OVC,,0.00,WeatherDisplay:10.37,2013-01-27 17:40:00,
2013-01-27 12:50:00,50.6,35.5,30.41,South,170,2.0,13.0,56,0.00,OVC,,0.00,WeatherDisplay:10.37,2013-01-27 17:50:00,
2013-01-27 13:00:00,51.0,34.9,30.40,SSW,199,8.0,15.0,54,0.00,OVC,,0.00,WeatherDisplay:10.37,2013-01-27 18:00:00,
2013-01-27 13:10:00,51.2,35.6,30.40,South,190,7.0,15.0,55,0.00,OVC,,0.00,WeatherDisplay:10.37,2013-01-27 18:10:00,
2013-01-27 13:20:00,51.7,35.6,30.40,SSW,199,3.0,12.0,54,0.00,OVC,,0.00,WeatherDisplay:10.37,2013-01-27 18:20:00,
2013-01-27 13:30:00,51.3,35.2,30.40,South,186,7.0,12.0,54,0.00,OVC,,0.00,WeatherDisplay:10.37,2013-01-27 18:30:00,
2013-01-27 13:40:00,51.0,34.9,30.40,SW,218,7.0,14.0,54,0.00,OVC,,0.00,WeatherDisplay:10.37,2013-01-27 18:40:00,
2013-01-27 13:50:00,50.6,34.6,30.39,SSW,209,6.0,15.0,54,0.00,OVC,,0.00,WeatherDisplay:10.37,2013-01-27 18:50:00,
2013-01-27 14:00:00,50.4,35.3,30.40,SSW,208,6.0,13.0,56,0.00,OVC,,0.00,WeatherDisplay:10.37,2013-01-27 19:00:00,
2013-01-27 14:10:00,50.1,35.0,30.40,SSW,201,5.0,12.0,56,0.00,OVC,,0.00,WeatherDisplay:10.37,2013-01-27 19:10:00,
2013-01-27 14:20:00,50.0,35.4,30.39,SSW,199,6.0,13.0,57,0.00,OVC,,0.00,WeatherDisplay:10.37,2013-01-27 19:20:00,
2013-01-27 14:30:00,50.0,34.9,30.39,SSW,199,8.0,20.0,56,0.00,OVC,,0.00,WeatherDisplay:10.37,2013-01-27 19:30:00,
2013-01-27 14:40:00,49.9,35.3,30.39,South,182,6.0,15.0,57,0.00,OVC,,0.00,WeatherDisplay:10.37,2013-01-27 19:40:00,
2013-01-27 14:50:00,49.9,35.2,30.39,SSW,205,8.0,12.0,57,0.00,OVC,,0.00,WeatherDisplay:10.37,2013-01-27 19:50:00,
2013-01-27 15:00:00,49.8,35.2,30.39,South,178,5.0,12.0,57,0.00,OVC,,0.00,WeatherDisplay:10.37,2013-01-27 20:00:00,
2013-01-27 15:10:00,49.7,35.1,30.39,South,180,6.0,12.0,57,0.00,OVC,,0.00,WeatherDisplay:10.37,2013-01-27 20:10:00,
2013-01-27 15:20:00,49.7,35.1,30.39,SSW,202,6.0,12.0,57,0.00,OVC,,0.00,WeatherDisplay:10.37,2013-01-27 20:20:00,
2013-01-27 15:30:00,49.6,35.0,30.40,SSW,198,7.0,13.0,57,0.00,OVC,,0.00,WeatherDisplay:10.37,2013-01-27 20:30:00,
2013-01-27 15:40:00,49.5,35.3,30.39,South,178,3.0,12.0,58,0.00,OVC,,0.00,WeatherDisplay:10.37,2013-01-27 20:40:00,
2013-01-27 15:50:00,49.5,34.9,30.39,South,171,3.0,12.0,57,0.00,OVC,,0.00,WeatherDisplay:10.37,2013-01-27 20:50:00,
2013-01-27 16:00:00,49.6,35.0,30.39,South,181,6.0,10.0,57,0.00,OVC,,0.00,WeatherDisplay:10.37,2013-01-27 21:00:00,
2013-01-27 16:10:00,49.6,35.0,30.39,SSE,167,8.0,15.0,57,0.00,OVC,,0.00,WeatherDisplay:10.37,2013-01-27 21:10:00,
2013-01-27 16:20:00,49.5,35.8,30.40,South,183,3.0,12.0,59,0.00,OVC,,0.00,WeatherDisplay:10.37,2013-01-27 21:20:00,
2013-01-27 16:30:00,49.3,35.6,30.40,SSW,197,5.0,9.0,59,0.00,OVC,,0.00,WeatherDisplay:10.37,2013-01-27 21:30:00,
2013-01-27 16:40:00,49.2,35.0,30.40,SSE,163,3.0,10.0,58,0.00,OVC,,0.00,WeatherDisplay:10.37,2013-01-27 21:40:00,
2013-01-27 16:50:00,49.2,35.5,30.40,South,186,6.0,14.0,59,0.00,OVC,,0.00,WeatherDisplay:10.37,2013-01-27 21:50:00,
2013-01-27 17:00:00,49.1,35.8,30.40,SSW,192,2.0,7.0,60,0.00,OVC,,0.00,WeatherDisplay:10.37,2013-01-27 22:00:00,
2013-01-27 17:10:00,49.1,34.9,30.41,South,188,6.0,12.0,58,0.00,OVC,,0.00,WeatherDisplay:10.37,2013-01-27 22:10:00,
2013-01-27 17:20:00,49.1,34.9,30.41,SSW,198,7.0,13.0,58,0.00,OVC,,0.00,WeatherDisplay:10.37,2013-01-27 22:20:00,
2013-01-27 17:30:00,49.1,34.9,30.40,South,191,5.0,10.0,58,0.00,OVC,,0.00,WeatherDisplay:10.37,2013-01-27 22:30:00,
2013-01-27 17:40:00,49.0,35.3,30.40,South,182,3.0,8.0,59,0.00,OVC,,0.00,WeatherDisplay:10.37,2013-01-27 22:40:00,
2013-01-27 17:50:00,49.0,35.3,30.40,SSW,198,2.0,10.0,59,0.00,OVC,,0.00,WeatherDisplay:10.37,2013-01-27 22:50:00,
2013-01-27 18:00:00,48.9,35.2,30.40,SSW,194,5.0,12.0,59,0.00,OVC,,0.00,WeatherDisplay:10.37,2013-01-27 23:00:00,
2013-01-27 18:09:00,48.9,35.2,30.40,SSW,193,5.0,12.0,59,0.00,OVC,,0.00,WeatherDisplay:10.37,2013-01-27 23:09:00,
2013-01-27 18:20:00,48.8,35.1,30.40,SSW,196,2.0,10.0,59,0.00,OVC,,0.00,WeatherDisplay:10.37,2013-01-27 23:20:00,
2013-01-27 18:30:00,48.8,35.1,30.40,South,189,3.0,12.0,59,0.00,OVC,,0.00,WeatherDisplay:10.37,2013-01-27 23:30:00,
2013-01-27 18:41:00,48.7,35.0,30.40,South,185,3.0,12.0,59,0.00,OVC,,0.00,WeatherDisplay:10.37,2013-01-27 23:41:00,
2013-01-27 18:50:00,48.6,35.3,30.40,SW,215,5.0,10.0,60,0.00,OVC,,0.00,WeatherDisplay:10.37,2013-01-27 23:50:00,
2013-01-27 19:01:00,48.6,35.3,30.40,SSW,196,5.0,14.0,60,0.00,OVC,,0.00,WeatherDisplay:10.37,2013-01-28 00:01:00,
2013-01-27 19:10:00,48.5,35.2,30.40,SSW,213,5.0,13.0,60,0.00,OVC,,0.00,WeatherDisplay:10.37,2013-01-28 00:10:00,
2013-01-27 19:20:00,48.5,35.2,30.40,SSW,192,3.0,15.0,60,0.00,OVC,,0.00,WeatherDisplay:10.37,2013-01-28 00:20:00,
2013-01-27 19:31:00,48.4,35.1,30.41,SSW,204,2.0,12.0,60,0.00,OVC,,0.00,WeatherDisplay:10.37,2013-01-28 00:31:00,
2013-01-27 19:40:00,48.3,35.1,30.41,SSW,209,6.0,12.0,60,0.00,OVC,,0.00,WeatherDisplay:10.37,2013-01-28 00:40:00,
2013-01-27 19:50:00,48.3,35.0,30.41,SSW,197,3.0,13.0,60,0.00,OVC,,0.00,WeatherDisplay:10.37,2013-01-28 00:50:00,
2013-01-27 20:01:00,48.3,35.5,30.41,SSW,194,5.0,10.0,61,0.00,OVC,,0.00,WeatherDisplay:10.37,2013-01-28 01:01:00,
2013-01-27 20:10:00,48.2,36.2,30.41,SSW,195,8.0,13.0,63,0.00,OVC,,0.00,WeatherDisplay:10.37,2013-01-28 01:10:00,
2013-01-27 20:20:00,48.1,35.3,30.41,SSW,200,6.0,13.0,61,0.00,OVC,,0.00,WeatherDisplay:10.37,2013-01-28 01:20:00,
2013-01-27 20:31:00,48.0,35.2,30.41,SSW,205,6.0,12.0,61,0.00,OVC,,0.00,WeatherDisplay:10.37,2013-01-28 01:31:00,
2013-01-27 20:40:00,47.9,35.1,30.40,SSW,200,7.0,9.0,61,0.00,OVC,,0.00,WeatherDisplay:10.37,2013-01-28 01:40:00,
2013-01-27 20:50:00,47.8,35.0,30.40,South,181,8.0,14.0,61,0.00,OVC,,0.00,WeatherDisplay:10.37,2013-01-28 01:50:00,
2013-01-27 21:01:00,47.8,35.4,30.40,South,182,3.0,12.0,62,0.00,OVC,,0.00,WeatherDisplay:10.37,2013-01-28 02:01:00,
2013-01-27 21:10:00,47.8,35.4,30.40,SSW,193,3.0,13.0,62,0.00,OVC,,0.00,WeatherDisplay:10.37,2013-01-28 02:10:00,
2013-01-27 21:20:00,47.9,35.1,30.39,South,182,2.0,12.0,61,0.00,OVC,,0.00,WeatherDisplay:10.37,2013-01-28 02:20:00,
2013-01-27 21:31:00,47.8,35.4,30.40,SSW,194,5.0,9.0,62,0.00,OVC,,0.00,WeatherDisplay:10.37,2013-01-28 02:31:00,
2013-01-27 21:40:00,47.8,35.0,30.39,SSW,195,6.0,13.0,61,0.00,OVC,,0.00,WeatherDisplay:10.37,2013-01-28 02:40:00,
2013-01-27 21:50:00,47.7,34.9,30.38,South,186,6.0,12.0,61,0.00,OVC,,0.00,WeatherDisplay:10.37,2013-01-28 02:50:00,
2013-01-27 22:01:00,47.6,34.8,30.40,South,187,3.0,12.0,61,0.00,OVC,,0.00,WeatherDisplay:10.37,2013-01-28 03:01:00,
2013-01-27 22:10:00,47.4,34.6,30.40,SW,214,2.0,8.0,61,0.00,BKN,,0.00,WeatherDisplay:10.37,2013-01-28 03:10:00,
2013-01-27 22:20:00,47.2,34.8,30.39,SSW,204,5.0,12.0,62,0.00,BKN,,0.00,WeatherDisplay:10.37,2013-01-28 03:20:00,
2013-01-27 22:31:00,46.9,34.6,30.40,SSW,199,5.0,9.0,62,0.00,BKN,,0.00,WeatherDisplay:10.37,2013-01-28 03:31:00,
2013-01-27 22:40:00,46.9,34.6,30.40,SW,220,2.0,9.0,62,0.00,BKN,,0.00,WeatherDisplay:10.37,2013-01-28 03:40:00,
2013-01-27 22:50:00,47.0,34.2,30.39,South,170,6.0,14.0,61,0.00,OVC,,0.00,WeatherDisplay:10.37,2013-01-28 03:50:00,
2013-01-27 23:01:00,47.0,33.8,30.40,SSW,200,2.0,14.0,60,0.00,OVC,,0.00,WeatherDisplay:10.37,2013-01-28 04:01:00,
2013-01-27 23:10:00,47.0,33.8,30.39,South,178,6.0,10.0,60,0.00,OVC,,0.00,WeatherDisplay:10.37,2013-01-28 04:10:00,
2013-01-27 23:20:00,46.9,33.8,30.40,South,190,6.0,10.0,60,0.00,OVC,,0.00,WeatherDisplay:10.37,2013-01-28 04:20:00,
2013-01-27 23:31:00,46.9,33.7,30.40,South,189,5.0,9.0,60,0.00,OVC,,0.00,WeatherDisplay:10.37,2013-01-28 04:31:00,
2013-01-27 23:40:00,46.6,33.4,30.38,South,188,5.0,17.0,60,0.00,BKN,,0.00,WeatherDisplay:10.37,2013-01-28 04:40:00,
2013-01-27 23:50:00,46.3,33.2,30.38,SSW,192,8.0,14.0,60,0.00,SCT,,0.00,WeatherDisplay:10.37,2013-01-28 04:50:00,